Location: Bay Ridge
(40.6340°N, 74.0146°W)
Time: 07:25:40
(UTC+00:00)

COSMO-SKYMED 1 - Pass Details

Date: 15 November 2019
Orbit: 621 x 623 km, 97.9° (Epoch: 16 December)

Event Time Altitude Azimuth Distance (km) Brightness Sun altitude
Rises 09:26:05 0° 141° (SE) 2,892 6.6 -25.9°
Reaches altitude 10° 09:28:27 10° 131° (SE) 1,990 5.8 -25.4°
Maximum altitude 09:32:14 30° 70° (ENE) 1,114 4.4 -24.7°
Drops below altitude 10° 09:36:02 10° 9° (N) 2,002 5.2 -24.0°
Sets 09:38:25 0° 359° (N) 2,913 6.0 -23.5°
